sat.trackr.live / text

‹ back to catalog

STARLINK-31502

NORAD 59301 · 2024-056F

PAYLOAD ACTIVE UNKNOWN

§ Identity

Operator
Country
US
Launch date
2024-03-24
Launch site
AFETR
Launch vehicle
Mass (kg)
RCS (m²)

Purposes: comms

External: N2YO · Heavens-Above · Gunter

§ Orbital elements

Epoch: 2026-05-24T01:14:35.014560Z

Period
94.27 min
Inclination
42.9986°
Eccentricity
0.0001570
Mean motion
15.27576137 rev/d
Perigee alt
482.0 km
Apogee alt
484.1 km
Semi-major
6,861.2 km
B*
-2.7863e-6
RAAN
157.8560°
Arg perigee
264.5907°
Mean anomaly
95.4765°
Rev number
12,276

§ Raw data

STARLINK-315021 59301U 24056F   26144.05179415 -.00000339  00000+0 -27863-5 0  99912 59301  42.9986 157.8560 0001570 264.5907  95.4765 15.27576137122764

JSON: /api/v1/satellites/59301 · /tle

For live sub-satellite position, see the globe view (requires WebGL).

§ Visibility from observer

Set your observer location to see the next 7 days of passes ≥ 10°. The values pass through the URL so the page stays shareable.

No JS? Fill the form by hand. The geolocation button needs JavaScript.